23. Mai 2022

Uhrzeit Code Wetter Temp. Sichtweite Wolken Wind METAR/SPECI
14:00
V
17 °C 24 km 8.000 ft 220°   220° 12 20 kt METAR CYWG 231900Z 22012G20KT 15SM BKN080 BKN120 BKN250 17/M01 A3010 RMK CU5AC2CI1 CI TR SLP201 DENSITY ALT 1100FT
13:00
V
17 °C 24 km 7.500 ft 200°   200° 14 21 kt METAR CYWG 231800Z 20014G21KT 15SM BKN075 BKN110 BKN250 17/M02 A3012 RMK CU6AC1CI1 CI TR SLP208 DENSITY ALT 1000FT
12:00
V
18 °C 24 km 8.100 ft 240°   240° 16 22 kt METAR CYWG 231700Z 24016G22KT 15SM BKN081 BKN250 18/M01 A3013 RMK CU6CI1 CI TR CONTRAILS SLP211 DENSITY ALT 1200FT
11:00
V
17 °C 24 km - 230°   230° 12 17 kt METAR CYWG 231600Z CCA 23012G17KT 15SM FEW050 FEW100 SCT220 SCT250 17/M00 A3015 RMK CF1AC2CC1CI1 CF TR CI TR ACC ASOCTD CONTRAILS SLP216 DENSITY ALT 1000FT
10:00
V
13 °C 24 km - 210°   210° 10 kt METAR CYWG 231500Z 21010KT 15SM FEW089 SCT110 13/03 A3017 RMK ACC2AC1 VIRGA N-NE SLP224
09:00
V
11 °C 24 km 9.300 ft 230°   230° 7 kt METAR CYWG 231400Z 23007KT 15SM BKN093 11/02 A3017 RMK ACC7 VIRGA ALQDS SLP224
08:00
V
9 °C 24 km 9.500 ft 230°   230° 7 kt METAR CYWG 231300Z 23007KT 15SM BKN095 09/02 A3017 RMK ACC5 VIRGA ALQDS SLP224
07:00
V
8 °C 24 km 11.000 ft 230°   230° 4 kt METAR CYWG 231200Z 23004KT 15SM BKN110 08/02 A3016 RMK ACC5 VIRGA SLP221
06:00
V
4 °C 24 km - 170°   170° 3 kt METAR CYWG 231100Z 17003KT 15SM SCT095 04/02 A3016 RMK AC4 SLP222
05:00
V
5 °C 24 km - 180°   180° 4 kt METAR CYWG 231000Z 18004KT 15SM FEW090 05/02 A3016 RMK AC1 SLP222
04:00
V
4 °C 24 km - 180°   180° 3 kt METAR CYWG 230900Z 18003KT 15SM SKC 04/02 A3016 RMK SLP222
03:00
V
7 °C 24 km - 180°   180° 8 kt METAR CYWG 230800Z 18008KT 15SM SKC 07/03 A3017 RMK SLP224
02:00
V
9 °C 24 km - 180°   180° 9 kt METAR CYWG 230700Z 18009KT 15SM SKC 09/02 A3018 RMK SLP226
01:00
V
7 °C 24 km - 170°   170° 8 kt METAR CYWG 230600Z 17008KT 15SM SKC 07/01 A3018 RMK SLP228
00:00
V
8 °C 24 km - 160°   160° 7 kt METAR CYWG 230500Z 16007KT 15SM SKC 08/M00 A3018 RMK SLP230

22. Mai 2022

Uhrzeit Code Wetter Temp. Sichtweite Wolken Wind METAR/SPECI
23:00
V
8 °C 24 km - 150°   150° 7 kt METAR CYWG 230400Z 15007KT 15SM SKC 08/M00 A3019 RMK SLP232
22:00
V
9 °C 24 km - 160°   160° 7 kt METAR CYWG 230300Z 16007KT 15SM SKC 09/00 A3018 RMK SLP230
21:00
V
12 °C 24 km - 160°   160° 8 kt METAR CYWG 230200Z 16008KT 15SM SKC 12/00 A3018 RMK SLP230
20:00
V
15 °C 24 km - 170°   170° 9 kt METAR CYWG 230100Z 17009KT 15SM FEW075 15/00 A3018 RMK AC1 AC TR SLP230
19:00
V
15 °C 24 km - 190°   190° 3 kt METAR CYWG 230000Z 19003KT 15SM FEW075 15/M05 A3019 RMK CU1 SLP232
18:00
V
16 °C 24 km - Var   Var 6 kt METAR CYWG 222300Z VRB06KT 15SM FEW079 16/M04 A3020 RMK CU2 SLP237 DENSITY ALT 800FT
17:00
V
15 °C 24 km - Var   Var 2 kt METAR CYWG 222200Z VRB02KT 15SM SCT079 15/M02 A3021 RMK CU4 SLP240
16:00
V
15 °C 24 km 7.500 ft 230°   230° 6 kt METAR CYWG 222100Z 23006KT 170V250 15SM BKN075 15/M01 A3021 RMK CU5 SLP241
15:00
V
15 °C 24 km - 250°   250° 4 kt METAR CYWG 222000Z 25004KT 150V290 15SM SCT075 15/M02 A3022 RMK CU4 SLP243
14:00
V
14 °C 24 km - Var   Var 7 kt METAR CYWG 221900Z VRB07KT 15SM SCT073 14/M02 A3022 RMK CU4 SLP244
13:00
V
13 °C 24 km - Var   000° 0 kt METAR CYWG 221800Z 00000KT 15SM SCT070 13/M03 A3023 RMK CU4 SLP246
12:00
V
13 °C 24 km - 240°   240° 3 kt METAR CYWG 221700Z 24003KT 210V330 15SM FEW066 13/M02 A3023 RMK CU2 SLP246
11:00
V
12 °C 24 km - 260°   260° 3 kt METAR CYWG 221600Z 26003KT 200V350 15SM FEW040 FEW250 12/M03 A3022 RMK CF1CI1 CI TR SLP243
10:00
V
12 °C 24 km - 290°   290° 5 kt METAR CYWG 221500Z 29005KT 270V340 15SM FEW040 FEW250 12/M00 A3022 RMK CF1CI1 CF TR CI TR SLP244
09:00
V
10 °C 24 km - 290°   290° 5 kt METAR CYWG 221400Z 29005KT 270V340 15SM FEW250 10/02 A3021 RMK CI1 CI TR SLP241
08:00
V
7 °C 24 km - 290°   290° 6 kt METAR CYWG 221300Z 29006KT 15SM SKC 07/02 A3021 RMK SLP240
07:00
V
4 °C 24 km - 280°   280° 4 kt METAR CYWG 221200Z 28004KT 15SM FEW080 04/01 A3020 RMK AC1 SLP238
06:00
V
1 °C 24 km - 270°   270° 6 kt METAR CYWG 221100Z 27006KT 15SM FEW080 01/M01 A3019 RMK AC1 SLP235
05:00
V
1 °C 24 km - 270°   270° 6 kt METAR CYWG 221000Z 27006KT 15SM FEW080 01/M01 A3018 RMK AC2 SLP232
04:00
V
2 °C 24 km 7.600 ft 260°   260° 7 kt METAR CYWG 220900Z 26007KT 15SM BKN076 02/M01 A3018 RMK AC6 SLP230
03:00
V
2 °C 24 km 7.800 ft 260°   260° 7 kt METAR CYWG 220800Z 26007KT 15SM BKN078 02/M01 A3018 RMK AC6 SLP230
02:00
V
3 °C 24 km - 270°   270° 5 kt METAR CYWG 220700Z 27005KT 15SM FEW080 03/M00 A3017 RMK AC2 SLP229
01:00
V
2 °C 24 km - 270°   270° 5 kt METAR CYWG 220600Z 27005KT 15SM SCT079 02/M01 A3018 RMK AC3 SLP231
00:17
V
2 °C 24 km 7.900 ft 270°   270° 6 kt METAR CYWG 220517Z 27006KT 15SM BKN079 02/M01 A3017 RMK AC5 SLP230
00:00
V
4 °C 24 km 7.900 ft 260°   260° 6 kt METAR CYWG 220500Z 26006KT 15SM BKN079 04/M01 A3017 RMK AC6 SLP229

21. Mai 2022

Uhrzeit Code Wetter Temp. Sichtweite Wolken Wind METAR/SPECI
23:00
V
6 °C 24 km 7.800 ft 270°   270° 5 kt METAR CYWG 220400Z 27005KT 15SM BKN078 06/M00 A3017 RMK AC5 SLP227
22:00
V
6 °C 24 km 7.900 ft 270°   270° 6 kt METAR CYWG 220300Z 27006KT 15SM BKN079 06/01 A3016 RMK AC6 SLP224
21:00
V
8 °C 24 km 8.100 ft 310°   310° 6 kt METAR CYWG 220200Z 31006KT 15SM BKN081 08/M01 A3014 RMK AC5 SLP219
20:00
V
9 °C 24 km 8.500 ft 320°   320° 10 kt METAR CYWG 220100Z 32010KT 15SM FEW048 BKN085 BKN250 09/M01 A3013 RMK CU1AC4CI1 SLP215
19:00
V
10 °C 24 km 4.400 ft 330°   330° 12 kt METAR CYWG 220000Z CCA 33012KT 15SM BKN044 BKN083 10/M01 A3012 RMK SC5AC1 VIRGA N SLP212
18:00
V
9 °C 24 km 8.000 ft 310°   310° 8 kt METAR CYWG 212300Z 31008KT 15SM SCT044 BKN080 09/M02 A3013 RMK CU3AC3 VIRGA NNW SLP215
17:00
V
9 °C 24 km 4.200 ft 320°   320° 12 kt METAR CYWG 212200Z 32012KT 280V360 15SM BKN042 BKN069 09/M00 A3013 RMK CU6AC1 SLP215
16:00
V
9 °C 24 km 3.000 ft 320°   320° 8 kt METAR CYWG 212100Z 32008KT 15SM BKN030 BKN074 09/M00 A3014 RMK CU6AC1 SLP217
15:00
V
7 °C 24 km 3.900 ft 020°   020° 4 kt METAR CYWG 212000Z 02004KT 350V070 15SM BKN039 BKN072 07/M02 A3014 RMK SC6AC1 SLP217
14:00
V
7 °C 24 km 5.700 ft Var   Var 6 kt METAR CYWG 211900Z VRB06KT 15SM SCT035 OVC057 07/M01 A3014 RMK SC4SC4 SLP217
13:00
V
7 °C 24 km 4.200 ft 350°   350° 10 kt METAR CYWG 211800Z 35010KT 15SM BKN042 OVC050 07/M01 A3012 RMK SC7SC1 SLP212
12:00
V
5 °C 24 km 4.300 ft 340°   340° 9 kt METAR CYWG 211700Z 34009KT 15SM OVC043 05/M01 A3011 RMK SC8 SLP208
11:00
V
6 °C 24 km 3.900 ft 360°   360° 11 kt METAR CYWG 211600Z 36011KT 320V040 15SM BKN039 BKN063 06/M02 A3009 RMK CU7SC1 SC TR SLP203
10:00
M
4 °C 24 km 2.500 ft 360°   360° 10 17 kt METAR CYWG 211500Z 36010G17KT 15SM BKN025 BKN087 04/M00 A3009 RMK CU6AC1 AC TR SLP201
Ältere Daten

Laden Sie unsere App herunter

Einfacher Zugriff auf das gesamte Flugwetter auf Ihrem Mobiltelefon und Tablet.
Mit vielen Funktionen, die auf der Website nicht verfügbar sind, wie Offline-Unterstützung und eine persönliche Flughafenliste.

Wir und Dritte verfolgen dein Internetverhalten auf unserer Website mit Cookies. Wenn du fortfährst, gehen wir davon aus, dass du mit unserer Cookie-Richtlinie einverstanden bist. Mehr erfahren